Home   Weather   Singen (Hohentwiel)   Past weeks

Flag for Germany Past Weather in Singen (Hohentwiel), Baden-Württemberg, Germany — Yesterday and Last 2 Weeks

Now
61 °F

Scattered showers. Broken clouds.


Feels Like: 61 °F
Forecast: 53 / 64 °F
Wind: 14 mph from West

Location: Zurich-Kloten

Current Time: Jul 24, 2017 at 12:58:02 pm

Latest Report: Jul 24, 2017 at 12:20 pm


Visibility: N/A

Pressure: 29.86 "Hg

Humidity: 77%

Dew Point: 54 °F

Location of Singen (Hohentwiel)Location

Past Weather in Singen (Hohentwiel) — Graph

°F

Singen (Hohentwiel) Temperature Yesterday

Maximum temperature yesterday: 70 °F (at 2:20 pm)
Minimum temperature yesterday: 61 °F (at 2:20 am)
Average temperature yesterday: 65 °F

High & Low Weather Summary for the Past Weeks

 TemperatureHumidityPressure
High90 °F (Jul 19, 3:50 pm)100% (Jul 10, 4:50 am)30.30 "Hg (Jul 10, 4:50 am)
Low52 °F (Jul 16, 3:20 am)29% (Jul 19, 4:50 pm)29.83 "Hg (Jul 21, 5:20 pm)
Average68 °F70%30.05 "Hg
* Reported Jul 9 11:20 am — Jul 24 11:50 am, Singen (Hohentwiel). Weather by CustomWeather, © 2017

Note: Actual official high and low records may vary slightly from our data, if they occured in-between our weather recording intervals... More about our weather records

Advertising

Singen (Hohentwiel) Weather History for the Previous 24 Hours

Scroll right to see more
 ConditionsComfort  
Time TempWeatherWind HumidityBarometerVisibility
11:50 am
Mon, Jul 24
61 °FScattered showers. Broken clouds.13 mph83%29.86 "HgN/A
11:20 am61 °FScattered showers. Broken clouds.14 mph83%29.86 "HgN/A
10:50 am59 °FRain showers. Partly sunny.15 mph94%29.86 "Hg4 mi
10:20 am63 °FSprinkles. Broken clouds.10 mph83%29.83 "HgN/A
9:50 am61 °FRain showers. Broken clouds.12 mph88%29.86 "Hg6 mi
9:20 am61 °FScattered showers. Broken clouds.9 mph83%29.86 "HgN/A
8:50 am61 °FBroken clouds.5 mph88%29.86 "HgN/A
8:20 am59 °FRain showers. Broken clouds.2 mph88%29.86 "Hg5 mi
7:50 am59 °FRain showers. Broken clouds.2 mph88%29.86 "Hg5 mi
7:20 am59 °FSprinkles. Broken clouds.No wind82%29.86 "HgN/A
6:50 am59 °FSprinkles. Broken clouds.2 mph88%29.89 "HgN/A
6:20 am59 °FSprinkles. Partly sunny.1 mph82%29.86 "HgN/A
5:50 am57 °FSprinkles. Passing clouds.No wind88%29.89 "HgN/A
5:20 am57 °FPassing clouds.1 mph82%29.89 "HgN/A
4:50 am55 °FPassing clouds.3 mph88%29.89 "HgN/A
4:20 am59 °FPassing clouds.No wind82%29.92 "HgN/A
3:50 am61 °FPassing clouds.2 mph77%29.92 "HgN/A
2:50 am63 °FPassing clouds.No wind73%29.95 "HgN/A
2:20 am63 °FPartly cloudy.No wind73%29.95 "HgN/A
1:50 am63 °FPassing clouds.5 mph73%29.98 "HgN/A
1:20 am63 °FPassing clouds.6 mph73%29.98 "HgN/A
12:50 am63 °FPassing clouds.1 mph73%30.01 "HgN/A
12:20 am64 °FPassing clouds.2 mph64%30.01 "HgN/A
11:50 pm
Sun, Jul 23
64 °FPassing clouds.1 mph68%30.04 "HgN/A
11:20 pm64 °FPartly cloudy.1 mph68%30.04 "HgN/A
10:50 pm64 °FPassing clouds.1 mph68%30.04 "HgN/A
10:20 pm64 °FPassing clouds.1 mph68%30.04 "HgN/A
9:50 pm66 °FPassing clouds.No wind60%30.04 "HgN/A
9:20 pm66 °FPartly cloudy.2 mph60%30.04 "HgN/A
8:50 pm66 °FPartly sunny.No wind60%30.04 "HgN/A
8:20 pm66 °FPartly sunny.5 mph60%30.04 "HgN/A
7:50 pm66 °FPartly sunny.7 mph60%30.04 "HgN/A
7:20 pm68 °FPartly sunny.7 mph56%30.07 "HgN/A
6:50 pm68 °FPartly sunny.9 mph56%30.07 "HgN/A
6:20 pm68 °FPartly sunny.10 mph60%30.07 "HgN/A
5:20 pm70 °FBroken clouds.9 mph57%30.07 "HgN/A
4:50 pm70 °FBroken clouds.8 mph57%30.07 "HgN/A
3:50 pm68 °FBroken clouds.5 mph60%30.09 "HgN/A
3:20 pm68 °FBroken clouds.7 mph60%30.09 "HgN/A
2:50 pm70 °FScattered clouds.6 mph57%30.09 "HgN/A
2:20 pm70 °FScattered clouds.7 mph60%30.09 "HgN/A
1:50 pm68 °FBroken clouds.5 mph60%30.12 "HgN/A
1:20 pm66 °FPartly sunny.6 mph60%30.12 "HgN/A
12:50 pm64 °FPartly sunny.8 mph68%30.12 "HgN/A
12:20 pm64 °FPartly sunny.9 mph68%30.12 "HgN/A
Weather by CustomWeather, © 2017

See weather overviewHow to use our weather pages